Погода в Солдатском

Россия / Белгородская область     50°43′08″N   35°46′47″E
темп.,
°C
ветер,
м/с
пор.,
м/с
влажн.,
%
обл.,
%
осадки,
мм/ч
давл.,
гПа
погр.,
м
8 мая, сб
сб800:00+12ююв61461100 0.0 1012483
03:00+11ю71470100 0.8 1010586
06:00+10ю71592100 0.7 1009598
09:00+11ю81787100 1.5 1007877
12:00+10ю81596100 5.6 1005709
15:00+11зюз61090100 10.9 1006607
18:00+10з81191100 0.3 1008807
21:00+6зсз71189100 0.4 10111024
9 мая, вс
вс900:00+6зсз7128698 0.1 10131070
03:00+5сз71179100 0.1 1015911
06:00+3сз61390100 0.0 1017607
09:00+7сз711685 0.0 10191166
12:00+10сз8105363 0.0 10201961
15:00+11ссз81047100 0.0 10212443
18:00+10ссз69598 0.3 10231459
21:00+6ссз36735 0.3 102694
10 мая, пн
пн1000:00+4ссз35785 0.0 102770
03:00+3ссз48805 0.0 1028135
06:00+3с38790 0.0 1029165
09:00+10с57590 0.0 1029672
12:00+13с68465 0.0 10281869
15:00+14с79465 0.0 10271994
18:00+13ссв610595 0.0 10261586
21:00+8с5137312 0.0 1027361
11 мая, вт
вт1100:00+7с6157530 0.0 1026428
03:00+7ссв71667100 0.0 1024522
06:00+8ссв71665100 0.0 1023541
09:00+10ссв81467100 0.0 1023606
12:00+14св8127099 0.0 1022977
15:00+11св7128171 0.0 1022838
18:00+12всв51078100 0.1 1023798
21:00+9ссв3392100 0.1 102243
12 мая, ср
ср1200:00+10св61393100 0.1 1021504
03:00+8в6128877 0.1 1020651
06:00+7всв6148790 0.0 1020827
09:00+9в81383100 0.1 10201156
12:00+9в81385100 0.2 10191289
15:00+10вюв7137946 0.3 10191071
18:00+12вюв61180100 0.4 10191071
21:00+9вюв51097100 2.9 1019420